Карточка аэропорта UHBB

Внимание!
Информация на этой странице в стадии наполнения.
Если вы не увидели какой-то информации, или заметили неточность - пожалуйста сообщите нам!
Спасибо!
Команда RU-STAFF
Название аэропортаИгнатьево
Название аэропорта (англ.)Ignatyevo
Превышение640 ft. (195.1 m.)
Координаты50°25.536', 127°24.72'
Высота перехода4000ft
Эшелон переходаQNH>=1013hPa: FL50; 1013hPa>QNH>=977hPa: FL60; QNH<977hPa: FL70
Коды ответчика1601-1617
Зона ОрВДХабаровск РПИ (UHHH)
Данные METARUHBB 211700Z 34004MPS 3700 -SHRA FEW010 BKN033CB 12/11 Q1000 RESHRA R36R/290261 NOSIG RMK QBB300 QFE733/0977
Проноз погоды (TAF)UHBB 211353Z 2115/2215 36003G08MPS 5000 -SHRA BKN033CB TEMPO 2115/2207 2100 -TSRA SCT011 BKN020CB BECMG 2120/2122 34007G14MPS BECMG 2207/2209 9999 NSW SCT033CB
NOTAMshow/hide NOTAM
AWOS   TABLE

Информация о ВПП

ВПП Длина ВПП (м.) Покрытие Курс ВПП Частота ILS
182800Асфальтобетон180 
362800Асфальтобетон360108.7

Диспетчерские позиции

Позывной Наименование органа УВД Частота
UHBB_TWRБлаговещенск-Вышка127.2



Спутниковое изображение